{"data":{"norad_id":63376,"intl_designator":"2025-063P","name":"STARLINK-33539","alt_names":[],"object_type":"PAYLOAD","status":"ACTIVE","operator":null,"country":"US","launch_date":"2025-03-26","launch_site_code":"AFWTR","launch_vehicle":null,"mission":null,"orbit_class":"UNKNOWN","rcs_meters":null,"size_class":null,"mass_kg":null,"dimensions":null,"purposes":["comms"],"wikipedia_slug":null,"has_3d_model":false,"image_url":null,"decayed_at":null,"tle_current":{"epoch":"2026-09-20T07:17:49.080192Z","epoch_age_seconds":175783,"freshness":"STALE","line1":"1 63376U 25063P   26263.30404028  .00013742  00000+0  41713-3 0  9996","line2":"2 63376  53.1571 236.4502 0001405  93.9427 266.1737 15.34398315 84393","mean_motion":15.34398315,"eccentricity":0.0001405,"inclination_deg":53.1571,"raan_deg":236.4502,"arg_perigee_deg":93.9427,"mean_anomaly_deg":266.1737,"bstar":0.00041713,"rev_number":8439,"period_min":93.84786114028,"perigee_km":461.74710962939,"apogee_km":463.66938714418,"semimajor_km":6840.8452483868,"source":"CELESTRAK","updated_at":"2026-09-21T09:00:34.974762Z"}}}